WMT22DP LRBC-LROP

Flight info

Callsign WMT22DP
Flight time 0h 31m
Altitude 20000
Route KENUX T74 DENAK
Aircraft A20N/M-SDE2E3FGHIRWXY/LB1

Departure

Time 2026-04-23 17:03
Airport Bacău George Enescu International Airport (LRBC)

Arrival

Time 2026-04-23 17:35
Airport Bucharest Henri Coandă International Airport (LROP)
Time Latitude Longitude Altitude Speed Heading
2026-04-23 16:28 46.53197 26.90981 614 ft 0 kts 74°
2026-04-23 16:50 46.53195 26.90971 618 ft 2 kts 75°
2026-04-23 16:51 46.53191 26.90948 614 ft 2 kts 75°
2026-04-23 16:51 46.53187 26.90925 618 ft 2 kts 76°
2026-04-23 16:51 46.53183 26.90902 623 ft 2 kts 80°
2026-04-23 16:51 46.53181 26.90878 619 ft 2 kts 114°
2026-04-23 16:52 46.53190 26.90865 620 ft 1 kts 163°
2026-04-23 16:52 46.53192 26.90865 620 ft 0 kts 163°
2026-04-23 16:55 46.53183 26.90868 623 ft 3 kts 164°
2026-04-23 16:56 46.53147 26.90882 623 ft 7 kts 164°
2026-04-23 16:56 46.53083 26.90909 624 ft 12 kts 164°
2026-04-23 16:56 46.52992 26.90945 621 ft 16 kts 165°
2026-04-23 16:56 46.52897 26.90981 624 ft 13 kts 165°
2026-04-23 16:57 46.52826 26.91008 624 ft 5 kts 167°
2026-04-23 16:57 46.52783 26.90990 614 ft 8 kts 230°
2026-04-23 16:57 46.52779 26.90977 625 ft 0 kts 247°
2026-04-23 16:58 46.52776 26.90966 621 ft 3 kts 249°
2026-04-23 16:58 46.52765 26.90915 617 ft 8 kts 253°
2026-04-23 16:58 46.52735 26.90825 615 ft 12 kts 217°
2026-04-23 16:59 46.52643 26.90841 622 ft 17 kts 165°
2026-04-23 16:59 46.52480 26.90904 625 ft 32 kts 165°
2026-04-23 16:59 46.52221 26.91006 626 ft 44 kts 165°
2026-04-23 16:59 46.51917 26.91125 624 ft 45 kts 165°
2026-04-23 17:00 46.51591 26.91254 620 ft 50 kts 165°
2026-04-23 17:00 46.51349 26.91352 621 ft 29 kts 164°
2026-04-23 17:00 46.51231 26.91400 619 ft 12 kts 159°
2026-04-23 17:00 46.51158 26.91483 622 ft 15 kts 148°
2026-04-23 17:01 46.51109 26.91451 619 ft 3 kts 284°
2026-04-23 17:01 46.51127 26.91427 616 ft 4 kts 330°
2026-04-23 17:01 46.51163 26.91418 618 ft 7 kts 349°
2026-04-23 17:01 46.51185 26.91411 629 ft 0 kts 348°
2026-04-23 17:02 46.51206 26.91404 625 ft 22 kts 348°
2026-04-23 17:02 46.51594 26.91247 623 ft 91 kts 345°
2026-04-23 17:02 46.52380 26.90939 623 ft 141 kts 345°
2026-04-23 17:03 46.53429 26.90533 1064 ft 159 kts 345°
2026-04-23 17:03 46.54456 26.90147 1761 ft 150 kts 346°
2026-04-23 17:03 46.55459 26.89759 2593 ft 148 kts 346°
2026-04-23 17:03 46.56480 26.89360 2900 ft 161 kts 346°
2026-04-23 17:04 46.57627 26.88915 3112 ft 180 kts 345°
2026-04-23 17:04 46.58909 26.88417 3285 ft 203 kts 345°
2026-04-23 17:04 46.60340 26.87860 3597 ft 223 kts 345°
2026-04-23 17:04 46.61901 26.87250 3936 ft 241 kts 345°
2026-04-23 17:05 46.63456 26.86223 4400 ft 251 kts 324°
2026-04-23 17:05 46.64570 26.84280 5048 ft 255 kts 297°
2026-04-23 17:05 46.64934 26.81755 5698 ft 261 kts 270°
2026-04-23 17:05 46.64419 26.79198 6300 ft 271 kts 242°
2026-04-23 17:06 46.63102 26.77201 6852 ft 281 kts 215°
2026-04-23 17:06 46.61239 26.76232 7357 ft 292 kts 188°
2026-04-23 17:06 46.59204 26.76540 7835 ft 300 kts 161°
2026-04-23 17:06 46.57319 26.77855 8350 ft 303 kts 149°
2026-04-23 17:07 46.55472 26.79402 9148 ft 308 kts 150°
2026-04-23 17:07 46.53605 26.80846 10238 ft 309 kts 153°
2026-04-23 17:07 46.51604 26.82003 11233 ft 311 kts 168°
2026-04-23 17:07 46.49453 26.82175 12236 ft 311 kts 189°
2026-04-23 17:08 46.47287 26.81620 12983 ft 325 kts 192°
2026-04-23 17:08 46.44983 26.80982 13336 ft 349 kts 192°
2026-04-23 17:08 46.42518 26.80307 13803 ft 366 kts 192°
2026-04-23 17:08 46.40002 26.79631 14633 ft 370 kts 192°
2026-04-23 17:09 46.37479 26.78961 15438 ft 374 kts 191°
2026-04-23 17:09 46.34896 26.78279 16216 ft 380 kts 191°
2026-04-23 17:09 46.32280 26.77590 17026 ft 384 kts 191°
2026-04-23 17:09 46.29639 26.76895 17813 ft 389 kts 191°
2026-04-23 17:10 46.26965 26.76191 18542 ft 393 kts 191°
2026-04-23 17:10 46.24261 26.75479 19210 ft 397 kts 192°
2026-04-23 17:10 46.21525 26.74759 19667 ft 401 kts 192°
2026-04-23 17:10 46.18779 26.74036 19805 ft 401 kts 192°
2026-04-23 17:11 46.16035 26.73316 19824 ft 401 kts 192°
2026-04-23 17:11 46.13282 26.72594 19826 ft 402 kts 192°
2026-04-23 17:11 46.10531 26.71873 19828 ft 402 kts 192°
2026-04-23 17:11 46.07809 26.71160 19830 ft 401 kts 192°
2026-04-23 17:12 46.05055 26.70440 19832 ft 401 kts 192°
2026-04-23 17:12 46.02309 26.69722 19832 ft 402 kts 192°
2026-04-23 17:12 45.99557 26.69003 19831 ft 402 kts 192°
2026-04-23 17:12 45.96801 26.68284 19831 ft 401 kts 192°
2026-04-23 17:13 45.94045 26.67567 19834 ft 401 kts 192°
2026-04-23 17:13 45.91302 26.66854 19832 ft 402 kts 192°
2026-04-23 17:13 45.88546 26.66138 19832 ft 402 kts 192°
2026-04-23 17:13 45.85789 26.65423 19836 ft 402 kts 192°
2026-04-23 17:14 45.83038 26.64710 19838 ft 402 kts 192°
2026-04-23 17:14 45.80327 26.64008 19839 ft 402 kts 192°
2026-04-23 17:14 45.77572 26.63295 19845 ft 402 kts 192°
2026-04-23 17:14 45.74818 26.62583 19837 ft 401 kts 192°
2026-04-23 17:15 45.72065 26.61871 19841 ft 401 kts 192°
2026-04-23 17:15 45.69310 26.61161 19840 ft 403 kts 192°
2026-04-23 17:15 45.66560 26.60452 19850 ft 403 kts 192°
2026-04-23 17:15 45.63797 26.59741 19847 ft 402 kts 192°
2026-04-23 17:16 45.61043 26.59032 19834 ft 401 kts 192°
2026-04-23 17:16 45.58284 26.58323 19836 ft 402 kts 192°
2026-04-23 17:16 45.55537 26.57618 19834 ft 402 kts 192°
2026-04-23 17:16 45.52770 26.56909 19851 ft 402 kts 192°
2026-04-23 17:17 45.50061 26.56216 19849 ft 401 kts 192°
2026-04-23 17:17 45.47304 26.55510 19849 ft 402 kts 192°
2026-04-23 17:17 45.45444 26.55034 19848 ft 402 kts 192°
2026-04-23 17:17 45.41806 26.54104 19845 ft 401 kts 192°
2026-04-23 17:18 45.36310 26.52703 19657 ft 402 kts 192°
2026-04-23 17:18 45.33551 26.52000 19168 ft 403 kts 192°
2026-04-23 17:18 45.30782 26.51295 18393 ft 406 kts 192°
2026-04-23 17:19 45.27984 26.50584 17532 ft 409 kts 192°
2026-04-23 17:19 45.25203 26.49880 17012 ft 401 kts 192°
2026-04-23 17:19 45.22484 26.49192 16470 ft 394 kts 192°
2026-04-23 17:19 45.19814 26.48518 15932 ft 388 kts 192°
2026-04-23 17:20 45.17171 26.47850 15395 ft 382 kts 193°
2026-04-23 17:20 45.12001 26.46543 14340 ft 372 kts 193°
2026-04-23 17:21 45.06996 26.45279 13290 ft 362 kts 193°
2026-04-23 17:21 45.04544 26.44661 12787 ft 356 kts 193°
2026-04-23 17:21 44.99673 26.44308 11808 ft 351 kts 170°
2026-04-23 17:22 44.97370 26.45431 11328 ft 348 kts 155°
2026-04-23 17:22 44.93037 26.48341 10353 ft 342 kts 155°
2026-04-23 17:23 44.88869 26.51121 9988 ft 318 kts 155°
2026-04-23 17:23 44.86907 26.52426 9786 ft 307 kts 155°
2026-04-23 17:23 44.83135 26.54926 9297 ft 298 kts 155°
2026-04-23 17:24 44.81242 26.56180 8952 ft 302 kts 155°
2026-04-23 17:24 44.79341 26.57437 8595 ft 301 kts 155°
2026-04-23 17:24 44.76191 26.59518 7995 ft 296 kts 155°
2026-04-23 17:25 44.71992 26.62289 7554 ft 274 kts 155°
2026-04-23 17:25 44.70270 26.63318 7382 ft 265 kts 163°
2026-04-23 17:26 44.67306 26.63942 7022 ft 255 kts 176°
2026-04-23 17:26 44.63802 26.64410 6461 ft 251 kts 175°
2026-04-23 17:27 44.60762 26.62883 6033 ft 227 kts 237°
2026-04-23 17:27 44.60177 26.60923 5744 ft 216 kts 269°
2026-04-23 17:27 44.60086 26.58830 5463 ft 214 kts 272°
2026-04-23 17:27 44.60018 26.56774 5192 ft 213 kts 271°
2026-04-23 17:28 44.59923 26.54693 4912 ft 213 kts 270°
2026-04-23 17:28 44.59847 26.52621 4646 ft 211 kts 276°
2026-04-23 17:28 44.59916 26.50560 4337 ft 212 kts 276°
2026-04-23 17:28 44.59972 26.48497 4076 ft 211 kts 275°
2026-04-23 17:29 44.60022 26.46436 3814 ft 211 kts 275°
2026-04-23 17:29 44.60122 26.44409 3667 ft 205 kts 278°
2026-04-23 17:29 44.60093 26.40364 3482 ft 209 kts 268°
2026-04-23 17:30 44.59943 26.38350 3387 ft 203 kts 267°
2026-04-23 17:30 44.59656 26.34589 3194 ft 185 kts 267°
2026-04-23 17:30 44.59517 26.32750 3020 ft 191 kts 267°
2026-04-23 17:31 44.59376 26.30906 2790 ft 190 kts 266°
2026-04-23 17:31 44.59237 26.29080 2589 ft 185 kts 266°
2026-04-23 17:31 44.59103 26.27330 2323 ft 180 kts 266°
2026-04-23 17:31 44.58972 26.25606 2075 ft 174 kts 266°
2026-04-23 17:32 44.58851 26.24028 1842 ft 161 kts 266°
2026-04-23 17:32 44.58733 26.22486 1641 ft 145 kts 267°
2026-04-23 17:32 44.58631 26.21148 1443 ft 131 kts 266°
2026-04-23 17:32 44.58535 26.19869 1267 ft 133 kts 266°
2026-04-23 17:33 44.58439 26.18611 1106 ft 131 kts 266°
2026-04-23 17:33 44.58343 26.17352 960 ft 129 kts 266°
2026-04-23 17:33 44.58247 26.16097 799 ft 129 kts 266°
2026-04-23 17:33 44.58151 26.14839 638 ft 130 kts 266°
2026-04-23 17:34 44.58056 26.13597 465 ft 128 kts 267°
2026-04-23 17:34 44.57962 26.12352 327 ft 125 kts 265°
2026-04-23 17:34 44.57826 26.10579 320 ft 63 kts 264°
2026-04-23 17:35 44.57787 26.10070 321 ft 46 kts 264°
2026-04-23 17:35 44.57717 26.09159 321 ft 49 kts 264°
2026-04-23 17:35 44.57684 26.08721 322 ft 26 kts 265°
2026-04-23 17:36 44.57666 26.08497 321 ft 14 kts 251°
2026-04-23 17:36 44.57576 26.08454 321 ft 16 kts 172°
2026-04-23 17:36 44.57549 26.08459 321 ft 0 kts 173°
2026-04-23 17:37 44.57528 26.08463 320 ft 9 kts 173°
2026-04-23 17:38 44.57431 26.08477 322 ft 18 kts 176°
2026-04-23 17:38 44.57303 26.08497 321 ft 16 kts 174°
2026-04-23 17:38 44.57235 26.08459 319 ft 9 kts 258°
2026-04-23 17:38 44.57230 26.08351 322 ft 13 kts 272°
2026-04-23 17:39 44.57212 26.08215 322 ft 16 kts 263°
2026-04-23 17:39 44.57201 26.08070 322 ft 15 kts 264°
2026-04-23 17:39 44.57172 26.07999 321 ft 9 kts 195°
2026-04-23 17:39 44.57131 26.08006 319 ft 0 kts 173°